Flag for Canada Weather past 2 weeks in Kelowna, British Columbia, Canada

Now
63 °F

Overcast.


Feels Like: 63 °F
Forecast: 59 / 87 °F
Wind: No wind

Location: Kelowna Airport

Current Time: Jul 1, 2015 at 6:29:41 AM

Latest Report: Jul 1, 2015 at 6:00 AM


Visibility: 9 mi

Pressure: 30.10 "Hg

Humidity: 83%

Dew point: 57 °F

Location of KelownaLocation

Historic Weather in Kelowna — Graph

°F

Kelowna temperature yesterday

Maximum temperature yesterday: 90 °F (at 5:00 PM)
Minimum temperature yesterday: 57 °F (at 3:00 AM)
Average temperature yesterday: 74 °F

Past Weeks' High & Low Weather Summary

 TemperatureHumidityPressure
High100 °F (Jun 27, 5:00 PM)94% (Jun 29, 10:00 AM)30.10 "Hg (Jun 29, 10:00 AM)
Low45 °F (Jun 21, 4:00 AM)13% (Jun 16, 4:00 PM)29.79 "Hg (Jun 18, 7:00 PM)
Average71 °F47%29.96 "Hg
* Reported Jun 16 5:00 AM — Jul 1 5:00 AM, Kelowna, Weather by CustomWeather, © 2015

Note: Actual official high and low records may vary slightly from our data, if they occured in-between our weather recording intervals... More about our weather records

Advertising

Kelowna weather history for previous 24 hours

 ConditionsComfort  
Time TempWeatherWind HumidityBarometerVisibility
5:00 AM
Wed, Jul 1
59 °FClear.No wind88%30.09 "Hg9 mi
4:00 AM61 °FClear.3 mph83%30.08 "Hg9 mi
3:00 AM61 °FClear.2 mph83%30.07 "Hg9 mi
2:00 AM64 °FClear.2 mph73%30.05 "Hg9 mi
1:00 AM68 °FClear.5 mph64%30.03 "Hg9 mi
12:00 AM72 °FClear.16 mph57%30.01 "Hg9 mi
11:00 PM
Tue, Jun 30
73 °FClear.14 mph57%29.99 "Hg9 mi
10:00 PM75 °FSunny.24 mph54%29.96 "Hg9 mi
9:00 PM79 °FOvercast.20 mph45%29.92 "Hg9 mi
8:00 PM88 °FPartly sunny.9 mph31%29.87 "Hg9 mi
7:00 PM90 °FPartly sunny.7 mph27%29.86 "Hg9 mi
6:00 PM90 °FSunny.3 mph27%29.87 "Hg9 mi
5:00 PM90 °FSunny.6 mph27%29.90 "Hg9 mi
4:00 PM88 °FSunny.3 mph29%29.93 "Hg9 mi
3:00 PM82 °FScattered clouds.12 mph45%29.98 "Hg9 mi
2:00 PM86 °FScattered clouds.6 mph35%29.99 "Hg9 mi
1:00 PM84 °FPartly sunny.13 mph40%30.01 "Hg9 mi
12:00 PM81 °FSunny.9 mph48%30.03 "Hg9 mi
11:00 AM77 °FSunny.5 mph54%30.04 "Hg9 mi
10:00 AM75 °FSunny.8 mph57%30.06 "Hg9 mi
9:00 AM72 °FSunny.3 mph65%30.06 "Hg9 mi
8:00 AM68 °FSunny.3 mph69%30.07 "Hg9 mi
7:00 AM64 °FSunny.2 mph78%30.09 "Hg9 mi
6:00 AM57 °FSunny.N/A94%30.08 "Hg9 mi
Weather by CustomWeather, © 2015

See weather overviewHow to use our weather pages